Theta_e
315 315 315 316 321 324 324 323 322 323 322 314 314 317 320 324 324 324 325 326 327 327 328 329 331 332 332 332 333 332 334 339 335 333 336 340 338 337 337 337 338 335 332 332 335 337 338 338 338 337 335 333 331 330 330 332 333 333 333 332 332 333 331 331 333 333 333 333 332 333 332 332 332 332 333 334 334 333 333 333 333 332 332 333 334 334 332 332 333 333 331 329 328 326 325 324 323
316 317 317 318 323 324 323 323 320 318 317 312 315 318 320 324 324 325 325 327 328 327 328 330 331 331 330 329 330 331 335 336 335 336 337 338 337 338 337 337 338 334 331 331 334 337 338 338 338 336 334 332 330 327 328 332 333 332 334 334 333 333 331 331 332 332 332 331 332 333 333 333 332 332 332 334 334 333 333 333 334 333 333 333 332 332 333 333 333 333 331 329 327 326 325 324 323
317 318 321 323 325 325 322 321 318 313 313 312 314 320 322 324 324 325 327 328 329 327 329 331 331 331 329 328 329 331 336 336 337 336 337 338 338 337 337 338 337 334 330 330 332 335 338 337 338 337 334 331 327 323 327 333 332 332 334 334 333 334 333 330 330 332 332 331 332 332 332 332 331 331 331 333 334 333 333 334 335 334 335 334 332 332 334 333 332 332 331 330 328 325 324 323 322
318 319 321 324 324 324 322 322 319 314 312 311 314 321 323 324 324 326 329 328 328 329 330 331 331 331 329 332 330 330 337 338 338 337 337 338 337 337 337 338 336 334 330 332 332 333 337 336 337 336 334 331 325 321 327 333 332 332 334 334 334 334 333 331 331 331 331 330 330 330 331 331 330 331 331 332 333 333 332 333 333 333 334 334 333 332 331 331 330 329 330 330 328 325 324 324 323
321 323 322 323 324 324 322 321 319 315 313 314 315 320 323 323 325 326 330 328 327 329 329 330 332 332 330 331 330 333 338 337 339 338 338 338 338 337 337 338 336 333 330 331 332 333 335 334 336 335 334 332 325 322 327 333 333 331 333 334 334 333 333 331 329 330 329 329 330 331 332 331 331 331 331 331 332 333 331 332 333 333 334 334 333 330 329 329 329 329 329 329 327 325 325 324 324
322 324 323 323 324 323 321 317 315 315 317 319 318 320 322 322 325 327 329 327 326 328 328 330 332 331 330 332 333 336 338 337 339 337 338 339 337 337 338 337 335 332 330 331 331 333 333 333 335 333 333 332 327 323 328 332 331 329 330 333 333 333 332 329 328 330 330 330 331 331 331 332 332 332 331 331 332 333 332 332 333 333 334 333 332 331 330 328 328 329 329 328 326 325 325 324 323
321 323 323 324 323 323 322 316 314 317 319 320 320 319 321 322 325 327 328 327 326 327 327 330 330 328 330 333 333 336 337 338 339 337 339 338 337 338 337 336 334 332 330 330 331 333 333 333 334 333 333 333 329 324 329 334 331 330 329 330 332 333 331 330 331 331 331 330 329 329 331 332 332 330 330 332 333 333 332 331 331 332 333 333 332 332 330 328 328 328 328 328 326 325 323 322 320
321 322 322 324 325 325 323 317 317 320 320 319 320 319 321 323 325 326 327 326 326 326 326 328 328 328 330 329 333 337 336 338 338 337 339 338 338 337 337 336 334 332 330 330 332 333 332 332 332 333 334 333 330 326 330 334 332 331 329 330 332 332 332 332 332 332 332 331 329 329 330 331 331 329 329 331 332 333 332 331 331 332 332 332 332 331 329 328 328 328 328 327 325 323 321 320 319
321 322 322 324 325 325 322 318 318 320 321 320 319 319 320 323 325 325 326 325 325 325 325 327 327 327 327 327 334 337 336 338 337 338 339 337 338 337 336 336 334 332 330 330 332 332 331 330 329 330 333 334 332 329 330 332 332 332 331 331 332 332 332 331 331 332 332 332 331 330 331 331 331 330 329 331 331 332 332 332 331 331 332 332 331 330 329 328 328 328 327 326 323 322 321 320 320
321 322 322 325 324 321 319 319 317 320 321 319 320 318 319 322 325 325 325 325 323 323 326 327 326 325 324 326 335 337 337 337 337 338 338 337 337 336 336 336 334 331 330 331 331 331 328 327 328 328 331 334 334 332 329 329 331 332 331 331 332 332 331 329 330 330 331 331 330 330 330 330 330 330 330 330 331 331 331 331 331 331 331 330 330 329 329 328 327 328 326 324 323 322 321 321 321
322 322 322 324 322 319 319 319 317 320 321 319 320 318 319 321 324 325 325 325 322 324 327 326 325 324 322 326 335 337 337 336 337 338 337 338 336 336 336 335 334 331 331 331 331 331 328 328 331 330 329 332 334 333 331 328 329 331 331 332 331 330 329 328 329 330 330 329 330 330 329 329 330 330 330 330 330 330 330 331 330 330 330 329 329 329 328 327 327 327 325 324 323 323 322 322 322
322 324 325 323 321 321 322 321 318 320 320 320 321 319 319 321 324 325 324 324 322 323 325 325 324 323 322 325 336 337 337 337 337 338 338 337 336 335 335 335 334 332 331 331 331 332 330 331 333 331 329 332 333 333 332 329 327 330 332 332 331 329 329 328 328 329 329 329 330 330 329 329 330 330 330 329 329 329 329 330 330 329 329 329 329 328 328 327 326 326 324 324 323 323 323 322 322
322 324 325 324 324 325 323 323 321 319 319 321 322 320 319 321 324 324 324 323 321 321 323 325 323 323 323 328 337 337 337 337 337 338 338 336 336 336 334 334 333 332 331 331 331 332 332 332 332 332 329 330 333 333 332 331 327 328 331 332 332 330 330 329 328 329 329 328 329 329 329 329 329 329 328 328 329 329 329 330 329 329 329 328 328 328 327 327 326 325 324 324 324 324 323 323 322
323 323 324 325 326 326 324 324 324 318 317 321 321 320 320 322 324 323 323 322 321 322 324 325 322 324 323 328 334 335 337 337 337 338 337 336 336 336 334 333 332 332 331 330 331 332 332 331 331 332 330 330 334 332 332 332 328 327 329 329 330 330 330 329 328 329 329 328 329 329 328 328 328 328 327 328 328 327 328 329 329 329 328 328 327 328 327 326 326 325 324 324 324 323 323 323 323
324 322 324 325 324 324 324 324 324 319 317 321 320 320 321 321 322 322 323 322 322 323 324 325 325 325 321 325 332 334 338 337 337 338 337 336 336 336 335 333 332 332 330 330 331 331 332 331 331 332 331 332 334 333 333 332 331 328 327 326 327 329 329 329 328 328 330 327 327 327 327 327 327 327 327 327 327 326 327 327 328 328 328 327 327 327 326 325 325 325 324 324 324 323 323 323 323
322 322 323 324 322 323 324 325 325 321 318 320 319 320 322 321 321 321 320 320 322 322 322 325 326 326 323 330 336 337 338 337 337 338 338 337 337 336 334 333 332 331 330 331 330 330 332 331 330 331 332 333 333 334 334 332 332 331 329 327 327 328 328 329 328 328 330 327 325 324 324 327 326 326 326 326 327 326 326 326 327 327 326 326 326 327 326 325 324 324 324 324 324 323 323 322 322
321 322 324 322 323 323 324 326 325 321 318 318 318 320 322 321 320 319 319 319 321 322 322 325 326 326 327 331 337 340 338 337 338 338 338 337 336 336 334 333 332 331 331 332 331 330 331 331 330 330 332 333 332 334 335 333 333 332 331 329 325 326 328 328 328 329 329 329 327 323 323 327 327 326 326 326 326 325 325 324 324 324 324 325 325 326 326 324 322 323 323 322 322 321 321 322 321
321 324 324 323 324 325 325 326 323 321 319 317 317 320 323 322 320 319 319 320 321 321 322 325 326 326 329 329 334 339 337 337 338 338 337 337 336 335 334 333 332 331 331 331 331 330 331 331 330 330 331 332 332 333 335 333 332 332 331 327 323 325 328 327 328 328 328 329 328 325 326 328 328 327 327 327 326 324 323 322 322 322 322 322 323 324 323 321 320 321 321 320 320 318 320 323 323
323 325 325 325 326 324 322 323 321 320 318 317 317 317 321 322 321 320 320 321 321 321 322 324 324 325 328 329 333 338 337 337 337 337 337 337 336 335 335 333 332 332 331 330 329 330 331 331 330 330 330 331 332 332 334 333 332 331 330 328 325 325 327 327 328 329 329 329 327 327 329 329 328 328 327 327 325 322 321 320 320 320 319 319 320 320 319 318 318 319 319 319 318 319 322 325 325
324 325 327 329 327 323 320 320 319 318 317 317 317 315 317 320 320 320 320 321 321 321 322 322 324 324 326 328 333 337 337 337 337 337 336 336 336 335 335 333 332 332 332 330 329 329 330 330 330 330 330 330 331 331 332 332 331 330 329 329 328 327 327 327 329 329 329 329 328 329 329 329 329 329 326 323 322 321 319 318 318 318 318 318 319 319 318 318 318 318 318 318 320 323 325 325 325
323 324 327 328 326 325 320 318 317 315 316 316 316 315 316 317 318 319 320 322 321 322 322 322 323 323 326 328 332 337 338 337 337 337 337 337 336 335 335 334 333 333 333 331 330 329 329 330 330 331 330 329 330 330 330 330 330 329 328 329 329 328 328 328 329 329 329 329 329 329 329 329 329 328 325 322 324 325 322 320 319 321 322 319 317 320 322 320 319 320 320 321 324 325 325 325 324
322 322 322 322 324 325 319 316 315 314 315 315 316 316 316 315 316 318 319 321 321 320 320 321 321 320 327 329 331 336 338 337 337 337 337 337 336 336 335 334 334 333 334 333 331 329 328 329 330 331 330 329 329 329 329 329 329 328 328 329 328 328 329 328 328 328 329 329 329 329 329 329 329 329 327 326 328 328 326 326 325 326 327 323 319 324 325 321 321 323 323 323 324 324 324 324 324
323 322 319 319 321 321 316 314 313 313 315 315 316 315 315 315 316 317 317 319 319 318 318 319 319 321 329 331 331 333 336 338 338 337 337 337 336 336 336 335 335 334 334 334 332 331 329 328 329 331 331 330 329 329 329 329 329 329 329 329 328 329 329 328 328 328 329 329 329 329 329 330 329 329 329 328 328 328 329 329 328 327 328 327 324 326 326 322 322 324 323 323 323 324 325 325 325
324 325 320 318 319 317 315 314 312 312 314 315 315 314 314 316 317 316 316 318 318 318 319 318 319 325 330 332 332 333 335 338 338 337 337 337 337 336 336 335 335 334 334 334 333 332 330 328 329 330 330 330 329 329 330 329 329 329 330 329 328 328 328 329 329 329 329 329 329 329 329 330 329 330 329 328 328 328 329 329 328 328 327 328 326 326 325 323 323 324 323 324 325 326 326 326 326
324 327 321 316 317 316 314 314 313 313 313 313 313 313 315 316 315 314 315 317 317 318 319 317 319 326 329 329 331 332 335 337 338 338 338 338 338 337 336 335 334 334 334 334 334 334 332 329 329 329 329 329 329 329 329 329 329 329 330 329 328 326 327 329 329 329 330 330 330 329 329 330 329 330 329 328 327 328 329 327 327 327 327 327 326 326 326 324 325 325 325 326 326 326 326 326 327
325 327 320 316 316 316 315 315 315 315 314 313 313 314 316 314 313 314 316 316 317 318 319 319 320 324 326 327 329 331 333 336 337 338 339 339 338 337 336 335 335 334 335 335 334 335 334 331 329 328 328 328 329 329 329 330 330 329 330 330 328 325 324 328 329 329 330 329 329 328 327 329 330 329 329 328 328 328 328 325 325 328 327 327 327 326 326 326 326 326 326 326 326 326 326 327 326
325 324 318 317 318 316 316 316 315 316 316 314 314 316 316 313 313 316 317 316 317 318 318 320 320 322 324 326 329 331 333 335 337 338 339 338 338 337 336 335 335 335 335 335 334 335 334 333 330 328 328 329 328 329 330 330 331 330 329 330 329 326 323 325 327 328 328 327 328 327 323 325 329 330 329 329 329 328 327 324 325 328 327 327 327 327 327 327 327 326 327 327 326 326 326 326 326
324 321 318 318 318 316 317 316 317 317 317 315 314 316 316 313 313 316 317 314 315 317 319 321 320 320 322 325 328 331 332 334 336 338 339 338 337 337 336 335 335 335 335 336 335 334 334 334 332 330 329 329 328 329 330 330 330 329 329 329 329 326 323 323 325 325 323 322 324 324 320 320 324 328 329 329 329 328 327 326 327 328 328 327 327 327 327 327 327 327 327 327 326 326 326 326 326
324 322 323 322 319 319 318 317 318 318 317 315 315 318 319 316 314 315 317 315 315 316 319 321 320 320 321 324 327 330 332 333 335 337 338 338 337 336 335 335 335 335 336 336 335 334 334 334 333 332 331 329 328 328 329 329 330 330 329 328 327 326 323 323 326 324 318 314 316 317 317 316 317 322 326 327 326 327 327 327 328 328 328 328 327 327 327 327 327 327 327 327 326 326 325 325 325
325 325 327 328 325 325 323 320 319 319 318 315 317 319 322 322 317 316 317 315 316 316 317 320 320 321 322 325 327 328 331 333 335 336 337 336 336 335 335 335 335 335 336 336 336 335 334 334 334 333 332 331 329 329 329 329 329 330 329 327 327 327 324 323 325 325 320 315 314 313 313 313 312 314 320 321 319 322 326 327 328 329 328 328 327 327 327 327 327 327 327 327 326 326 325 325 324
326 326 326 328 328 328 328 325 322 320 318 316 319 319 323 324 318 316 317 316 315 316 316 318 319 321 323 326 327 327 329 332 334 334 335 336 335 335 335 335 336 336 336 335 335 335 334 334 334 334 333 332 331 330 329 329 329 330 329 327 328 327 326 324 323 324 323 319 318 316 314 314 314 313 315 318 317 319 325 328 329 329 328 328 328 328 327 327 327 327 327 326 326 326 325 325 324
327 327 328 330 329 329 327 326 324 323 319 317 320 321 323 324 322 318 315 315 315 316 316 316 318 321 322 324 325 326 327 330 333 333 334 335 335 336 336 336 336 336 336 335 335 335 334 334 333 334 333 333 332 331 330 330 330 330 330 328 328 328 327 327 325 323 323 322 321 320 318 317 318 317 317 319 321 322 325 328 329 329 329 329 328 328 327 327 326 326 326 326 326 325 325 325 325
327 327 329 331 330 329 327 324 324 325 322 318 321 324 326 324 322 319 315 316 316 316 317 316 317 318 321 322 323 324 325 328 332 332 333 334 335 336 336 336 335 336 335 335 335 335 335 334 333 333 333 333 333 332 331 331 331 331 331 329 329 330 328 328 327 325 325 326 325 322 321 319 319 320 320 320 323 325 326 328 329 329 329 329 328 328 327 327 326 326 326 326 326 326 326 325 325
327 326 328 330 330 329 327 323 322 323 322 321 321 324 328 325 319 315 313 315 317 316 317 316 316 317 319 320 322 323 324 326 330 332 332 333 335 335 335 335 335 335 335 335 335 334 334 334 333 333 333 333 333 333 333 332 332 331 332 331 331 331 329 329 328 327 328 328 327 326 324 322 320 320 321 322 324 326 328 329 329 329 329 329 328 328 327 327 326 326 326 326 326 326 326 326 326
327 326 328 328 327 326 327 324 322 321 322 323 323 322 325 326 322 318 314 314 315 316 317 316 316 316 316 318 319 321 322 324 327 330 331 332 334 335 335 335 334 335 335 335 335 334 334 333 333 333 332 332 333 333 333 333 332 332 332 332 332 332 331 330 330 330 330 330 329 328 327 326 324 323 324 326 326 327 328 329 329 329 329 329 328 328 327 327 326 327 327 326 326 326 326 326 325
329 328 328 327 326 325 327 324 319 321 322 323 325 323 323 324 324 324 320 316 315 316 318 317 316 316 315 316 317 319 320 321 323 326 329 331 333 334 334 334 335 335 335 334 334 334 334 334 333 333 333 332 332 332 333 333 333 332 332 332 332 332 332 331 331 331 331 331 330 329 329 328 328 327 327 329 329 329 329 329 329 329 329 329 329 328 328 327 327 327 327 326 326 326 326 326 325
330 330 328 328 327 326 328 324 316 317 321 321 323 324 324 324 323 323 324 321 318 318 319 319 318 317 317 316 316 317 318 319 322 325 328 331 332 334 334 334 334 335 335 334 334 334 334 333 333 333 333 332 331 332 332 333 333 332 332 332 332 332 332 332 331 331 331 331 331 330 330 329 329 330 330 331 332 331 330 330 330 330 330 330 329 329 328 328 328 328 327 327 327 326 326 326 325
329 329 327 328 328 327 327 323 315 314 318 321 323 322 322 323 322 321 322 321 320 319 318 320 320 319 319 318 317 318 318 319 323 324 326 329 331 333 333 334 334 334 334 334 334 334 333 333 333 333 333 332 331 331 331 332 332 332 332 332 332 332 332 332 332 331 331 331 331 330 330 330 330 331 332 332 332 332 332 331 331 331 331 330 329 329 329 328 328 328 328 328 327 327 326 326 325
328 328 328 328 328 328 324 319 315 313 317 322 322 321 320 319 320 320 320 319 319 320 318 318 320 322 322 319 317 318 318 319 321 320 321 324 328 330 332 333 333 334 334 333 333 333 333 333 333 333 333 332 331 331 331 331 332 332 332 332 332 332 333 333 332 332 331 331 330 330 330 330 331 332 333 332 332 332 333 332 332 331 331 331 330 329 329 329 328 328 328 328 327 327 325 326 325
328 328 328 327 328 328 325 320 316 314 316 319 319 319 319 319 320 320 320 320 318 319 318 317 318 321 322 321 319 317 317 319 319 318 317 320 324 327 330 332 332 333 333 333 333 333 333 333 333 333 333 332 332 331 330 331 332 332 332 333 333 333 333 333 333 332 332 331 331 330 330 330 331 332 333 333 332 332 333 333 332 332 331 331 330 330 329 329 329 329 328 328 327 327 326 325 325
328 328 328 328 327 327 323 320 317 315 315 315 317 321 322 323 324 323 323 322 319 318 318 317 316 318 319 319 319 318 318 319 318 318 318 318 321 324 327 330 331 332 332 333 332 332 332 333 333 333 333 332 332 332 331 330 331 332 332 332 333 333 333 333 333 333 332 331 331 331 331 331 331 331 332 333 332 332 332 332 332 332 332 332 331 330 329 329 329 328 328 328 327 327 326 326 325
328 327 327 326 326 326 322 318 318 320 320 318 320 326 326 324 325 326 325 325 323 320 318 317 316 316 317 317 317 318 318 319 318 318 319 319 319 321 324 327 329 331 331 332 332 332 332 332 333 334 333 333 333 333 332 331 331 331 332 332 332 333 333 333 333 333 333 332 331 331 330 330 330 331 332 332 332 332 332 331 331 331 332 332 331 330 330 329 329 329 328 328 327 327 327 326 325
327 326 324 325 325 325 322 320 322 325 325 318 317 324 326 323 324 326 325 325 324 321 319 318 317 316 316 316 316 316 316 317 318 317 317 318 318 319 320 323 326 328 330 331 332 332 332 332 333 333 333 333 333 333 333 332 331 332 332 332 332 332 333 333 333 333 333 332 332 331 331 330 330 330 330 331 331 331 331 331 330 331 332 332 331 330 330 329 329 328 328 328 327 327 327 327 327
327 323 322 324 324 323 322 322 323 324 322 318 315 319 323 322 322 324 323 322 321 320 320 319 317 317 316 316 316 316 316 317 318 319 317 317 317 318 318 319 322 324 327 328 330 331 332 332 333 333 333 333 333 334 334 333 332 332 332 332 332 332 332 333 333 332 332 332 332 332 332 331 330 330 330 330 330 329 330 330 330 330 331 332 331 331 330 330 329 328 328 328 327 327 327 327 327
322 319 321 322 322 322 321 322 323 321 321 322 319 317 322 323 320 322 322 320 320 320 320 319 318 317 316 316 316 316 316 317 318 319 318 317 317 317 316 316 318 319 321 322 325 328 330 331 332 332 333 332 333 334 334 333 332 332 332 332 332 332 332 332 332 332 332 331 331 331 332 331 330 330 329 329 329 329 329 329 329 329 330 332 332 331 330 329 329 329 328 328 327 327 327 327 327
319 317 319 319 319 320 320 321 322 320 320 324 322 318 322 324 321 321 320 318 320 321 320 321 319 318 318 317 317 317 316 318 319 318 317 317 317 316 315 315 314 315 316 317 320 323 326 329 331 331 332 332 332 333 333 333 333 332 331 332 332 332 331 331 331 331 331 331 331 331 331 331 330 330 329 329 329 329 329 329 329 329 329 331 331 331 330 329 329 329 328 328 327 326 326 326 326
317 317 319 318 318 318 319 319 318 320 323 324 322 319 321 324 322 321 321 318 319 321 320 321 320 319 319 318 318 317 316 319 320 317 315 315 315 314 314 313 313 312 312 313 315 317 320 324 327 329 330 331 332 332 332 333 333 332 331 331 332 332 332 331 330 331 331 331 330 330 330 331 330 330 329 329 328 329 329 329 329 329 329 330 331 331 330 329 329 329 328 328 327 326 326 326 326
317 319 319 320 320 318 320 319 318 324 326 321 319 319 320 323 321 320 323 320 318 319 319 319 319 319 319 319 319 318 316 316 316 315 314 314 313 312 312 311 311 310 310 310 310 311 314 317 320 325 327 329 330 331 331 332 332 332 331 331 331 332 332 331 331 331 331 331 331 330 330 330 330 330 329 328 328 328 329 329 329 329 329 330 330 330 330 330 329 329 328 327 326 325 325 326 326
319 319 319 322 324 323 325 324 322 325 325 316 315 318 320 321 320 319 321 319 317 317 317 317 318 317 318 319 318 316 315 315 314 315 316 316 315 314 313 312 311 311 309 309 308 308 310 313 316 319 321 323 326 329 330 331 331 331 331 331 330 330 330 331 330 330 330 331 331 330 329 329 329 329 328 328 328 328 328 329 329 328 328 329 330 329 330 330 330 329 328 327 326 325 326 326 325
319 320 321 324 326 327 329 328 326 326 321 314 313 318 319 319 318 318 319 319 318 317 316 316 316 316 317 317 316 315 315 316 317 317 318 318 317 317 316 314 314 313 311 310 309 308 309 312 315 316 317 319 322 325 327 329 330 330 330 330 329 329 329 329 329 329 329 329 330 329 329 328 328 328 328 327 327 328 328 329 329 328 328 329 330 330 330 330 330 329 328 327 326 326 326 325 324
319 320 321 323 324 327 329 328 328 326 319 314 315 318 320 318 317 315 315 316 317 317 316 316 316 315 316 316 316 315 315 316 318 318 318 318 317 317 316 315 315 314 312 310 309 309 309 310 313 315 317 318 320 323 325 327 328 328 328 328 328 328 328 328 328 328 329 328 328 328 327 328 328 328 327 327 327 327 328 328 329 328 328 328 329 329 329 329 329 328 327 326 326 325 324 324 324
320 319 321 323 322 322 321 319 320 320 318 317 316 317 318 317 317 315 314 314 314 315 316 315 315 314 314 315 315 315 315 315 318 319 318 316 316 315 314 315 315 314 313 311 310 309 309 309 311 314 315 317 319 322 324 326 326 326 326 326 327 327 327 327 327 328 328 328 328 328 327 327 327 327 327 327 327 327 327 328 328 328 327 328 328 327 327 327 328 328 326 326 325 324 323 323 322
320 319 321 321 317 317 317 316 314 315 320 321 317 317 317 316 318 317 316 315 313 314 314 314 314 314 313 315 316 316 316 317 320 320 318 316 316 315 314 314 315 314 313 312 312 310 308 309 311 313 314 316 318 320 322 323 324 324 325 326 326 326 326 326 327 327 328 328 328 328 327 327 327 327 327 327 327 327 327 328 329 328 328 328 328 328 327 326 327 327 326 325 324 323 323 322 321
318 319 320 317 315 315 316 318 317 317 322 321 317 318 317 315 317 318 316 315 314 315 314 314 314 314 315 316 317 318 318 319 320 318 316 315 314 315 315 314 314 314 314 314 312 310 308 309 312 313 314 316 317 319 321 322 323 324 324 325 325 325 325 326 326 326 327 328 328 328 328 327 327 327 326 327 326 326 327 328 329 329 329 328 328 328 328 327 327 326 325 324 323 323 322 321 319
315 317 318 317 319 318 316 318 319 320 323 320 316 316 315 315 316 316 317 316 316 316 315 315 315 315 316 316 317 318 318 320 319 316 315 314 314 313 313 314 314 313 313 313 312 310 309 309 310 311 314 316 317 319 321 321 322 323 323 323 323 324 325 325 326 326 326 327 328 328 328 327 326 326 326 326 326 326 327 328 329 329 329 328 328 328 327 327 326 325 324 323 323 322 321 320 318
312 315 316 317 319 319 317 318 317 318 321 320 318 316 315 316 316 316 317 316 316 316 316 317 316 315 316 315 317 318 319 320 319 316 315 313 314 314 314 315 315 313 311 311 310 310 309 309 308 308 310 312 314 315 317 319 321 321 321 321 322 323 324 324 325 325 326 326 327 327 327 326 326 326 326 326 326 326 327 328 329 329 328 328 327 327 326 326 325 325 324 323 322 321 320 319 318
312 315 317 317 316 315 316 317 315 316 318 318 319 318 315 316 317 317 317 317 316 316 316 317 317 316 316 315 316 318 319 319 317 315 313 312 313 314 314 314 313 311 311 310 310 310 310 310 310 309 309 310 310 311 313 315 317 318 318 319 320 321 322 322 323 323 324 325 325 326 326 326 325 325 325 325 325 326 327 328 328 328 328 327 326 326 325 325 325 323 323 322 321 320 319 318 318
314 315 316 317 316 315 317 320 317 314 316 316 317 318 316 315 317 316 316 316 316 315 316 317 317 316 315 314 315 317 317 316 315 314 312 312 313 313 313 312 311 310 311 311 310 311 311 311 311 311 311 311 311 311 311 312 313 314 315 316 317 318 319 320 321 321 322 323 324 324 325 325 325 325 325 325 325 326 327 327 327 327 327 326 325 324 324 325 324 322 322 321 320 319 318 317 316
Wind_Speed
8 10 10 8 6 8 7 4 3 2 3 0 3 1 4 4 2 4 6 4 3 5 3 2 4 3 0 4 5 6 9 8 6 2 3 6 11 12 11 13 15 14 13 13 13 10 10 11 12 12 12 11 10 10 10 12 13 13 13 14 15 14 14 15 13 14 14 13 13 13 13 14 14 13 14 14 15 15 15 16 16 16 17 16 17 16 16 18 18 18 18 18 18 18 18 18 18
8 10 9 8 6 6 3 1 4 2 3 2 4 2 6 4 3 4 6 3 4 7 3 3 4 2 3 5 4 2 7 10 9 7 7 11 13 11 13 14 14 13 12 13 14 12 8 10 13 12 11 10 9 9 11 13 13 12 12 12 13 14 14 14 13 13 13 12 12 12 13 13 14 14 14 14 14 14 14 15 15 16 17 15 15 16 17 17 18 18 17 17 17 17 17 17 17
7 8 7 7 5 6 2 3 4 2 2 2 5 4 5 4 3 4 6 6 7 7 5 3 4 2 2 3 1 2 4 7 10 10 9 14 12 11 15 14 14 13 12 12 13 12 9 10 12 12 10 9 9 10 12 13 11 11 11 11 13 14 14 13 13 13 13 12 12 12 12 13 13 13 14 14 14 14 14 15 13 14 16 15 15 16 17 17 17 16 17 16 16 16 16 16 15
5 6 5 6 5 4 4 4 3 3 2 2 4 5 4 3 5 7 9 8 7 6 5 4 4 2 4 2 3 2 6 7 9 10 8 12 12 15 16 15 14 12 12 12 12 12 10 10 12 11 9 9 9 11 13 13 11 10 10 11 14 14 13 13 13 12 12 13 12 12 12 13 13 13 13 13 14 14 14 14 13 13 16 16 16 15 16 16 16 15 15 15 15 15 15 15 15
4 5 5 6 5 1 3 2 2 3 2 3 2 6 4 2 6 8 8 7 5 4 4 5 3 3 2 4 4 2 5 6 8 9 10 12 15 18 17 15 14 12 12 11 12 12 10 10 11 10 8 10 10 12 14 13 10 9 10 11 12 13 12 12 12 11 12 12 13 13 13 13 14 13 13 13 13 13 14 14 13 14 16 16 15 14 15 15 15 15 14 14 14 14 14 14 14
4 6 5 5 3 1 3 3 2 0 4 4 3 5 4 3 6 8 8 7 4 2 2 5 1 2 3 2 2 5 5 5 8 8 10 13 16 18 17 15 13 13 12 11 12 11 11 12 11 9 7 9 11 11 13 12 10 8 8 9 10 11 11 12 12 11 12 12 12 12 12 13 14 14 13 13 13 13 14 14 13 14 16 15 15 15 15 14 14 14 13 13 14 13 14 13 13
4 4 4 4 2 1 5 2 1 2 4 4 4 4 4 5 6 8 8 6 4 3 2 3 1 2 2 4 2 6 6 5 6 8 11 15 17 17 16 14 13 13 12 11 11 10 14 15 12 10 8 9 10 10 12 12 9 8 8 9 10 10 11 12 11 10 12 12 12 11 11 12 13 14 13 13 12 12 13 13 13 14 15 15 15 15 14 13 13 13 13 13 13 13 13 13 13
4 3 1 3 3 2 4 1 0 2 4 2 3 3 4 5 6 7 8 5 5 5 5 4 2 4 2 2 1 7 6 6 7 11 14 17 18 17 15 13 13 13 12 12 11 11 15 17 13 11 10 10 9 11 13 12 10 9 8 9 9 10 12 11 10 10 11 12 12 11 11 12 13 14 13 12 12 11 13 13 12 14 14 14 14 14 13 13 13 13 13 12 13 13 13 13 13
3 3 1 4 4 2 3 2 1 2 4 2 3 3 2 4 6 7 7 5 4 5 5 6 5 3 3 3 3 7 6 7 10 13 14 17 17 16 13 12 13 13 12 11 11 11 14 16 14 12 12 12 10 10 13 13 11 10 9 9 9 11 13 12 10 10 11 11 12 11 11 12 12 13 12 12 12 11 11 12 12 12 13 12 13 13 12 12 12 12 12 12 12 12 13 13 13
3 2 2 4 4 3 4 2 2 3 4 3 2 4 4 5 6 6 7 5 4 4 4 4 5 4 1 2 5 6 7 9 12 13 14 16 16 14 12 11 12 13 13 12 12 12 13 15 14 13 13 14 12 10 12 12 12 12 11 11 10 10 11 11 11 10 10 11 11 11 11 12 11 11 11 11 11 11 11 11 11 11 11 12 12 11 11 11 12 11 11 11 11 12 12 13 13
3 2 2 3 4 4 4 2 3 3 5 3 3 4 4 6 6 5 6 5 4 4 5 4 4 5 4 1 4 6 9 10 13 15 15 16 14 13 12 11 11 12 12 12 13 12 13 14 14 13 13 15 14 12 11 10 11 12 11 11 10 8 7 8 10 10 10 11 11 11 11 11 11 11 11 11 11 12 12 10 10 10 10 11 11 10 10 10 10 10 10 10 10 11 11 12 12
4 3 3 4 5 4 1 0 3 4 5 4 4 5 3 7 7 6 6 5 5 4 6 7 1 1 5 1 4 9 11 11 14 16 16 15 13 12 12 11 10 10 11 12 12 12 12 13 13 12 13 14 15 13 11 10 11 12 11 10 9 7 6 7 10 11 9 11 11 11 12 12 12 11 12 13 12 12 12 10 8 9 10 9 9 9 9 9 9 9 9 9 9 9 10 10 11
3 2 4 4 4 3 2 1 1 2 4 4 5 4 4 8 8 6 6 4 5 5 5 6 1 2 3 4 6 9 11 13 15 16 16 15 12 11 11 10 10 10 11 12 12 12 12 12 12 11 13 14 15 14 12 11 12 13 11 11 9 8 9 9 11 11 9 11 12 11 11 11 11 11 12 13 13 12 12 12 10 9 9 8 9 9 9 8 8 8 8 8 8 8 8 9 10
2 1 4 4 2 3 2 2 1 3 3 6 5 3 5 6 5 3 4 5 4 2 3 4 1 3 2 4 6 7 10 16 16 15 15 13 12 11 10 10 10 9 11 11 11 13 12 11 11 11 12 12 13 15 13 11 12 14 12 11 10 10 10 9 10 12 10 10 11 11 10 10 10 11 12 12 12 12 12 13 11 10 8 8 8 8 8 7 7 7 7 7 7 7 7 8 8
3 1 3 4 3 4 4 3 1 3 2 7 3 3 6 3 1 3 3 4 3 5 4 3 1 2 1 1 3 8 15 19 17 16 15 13 12 11 9 9 9 9 10 10 11 12 12 11 11 11 12 11 12 13 13 12 11 13 13 10 10 11 10 8 9 11 10 9 9 8 8 9 10 10 11 11 11 12 13 12 12 10 8 8 8 7 6 6 6 6 6 6 5 5 6 7 7
2 1 3 4 5 4 4 3 2 3 2 6 3 3 7 4 2 4 1 2 2 5 3 2 2 2 4 4 6 13 21 21 19 17 15 14 12 11 9 9 9 9 8 9 10 11 12 11 11 11 12 12 12 12 12 12 12 11 11 9 10 11 11 9 9 9 9 9 7 7 9 9 9 9 9 10 11 12 12 12 11 9 7 7 7 7 5 5 5 4 5 4 4 5 5 6 6
1 2 4 4 6 5 4 6 3 1 4 6 4 4 7 5 3 3 2 3 2 4 4 2 3 1 5 7 8 15 21 20 20 19 16 15 13 12 10 10 10 9 8 9 10 11 12 12 12 12 12 12 12 12 11 11 12 11 10 9 10 13 12 11 10 9 9 9 6 6 8 9 8 8 8 8 9 10 10 10 9 7 7 7 7 6 5 5 4 4 3 3 4 4 5 6 6
2 4 5 5 6 4 3 4 1 1 4 5 4 5 6 4 5 4 2 6 5 4 6 4 3 3 6 8 7 13 19 18 20 20 18 16 14 13 12 12 12 10 9 9 9 10 12 12 12 12 12 13 12 12 11 10 11 11 10 8 9 13 14 13 11 9 9 9 8 6 8 8 7 8 7 7 7 8 8 8 7 6 6 6 6 6 5 5 4 3 3 3 4 4 6 6 5
5 5 5 6 5 1 2 1 2 2 4 5 3 2 5 2 4 6 5 8 8 7 7 7 6 7 8 8 9 14 17 18 19 20 19 18 16 15 14 13 13 12 11 10 10 11 12 12 13 12 12 14 13 12 11 9 10 11 10 9 9 11 13 13 11 10 10 10 9 8 8 8 8 8 8 8 7 8 8 7 6 5 5 5 4 4 4 4 3 3 3 3 4 5 6 4 2
5 5 6 6 5 3 3 2 3 4 3 3 4 1 3 2 2 5 6 7 8 9 7 8 9 10 11 10 12 15 17 17 18 19 19 18 17 16 15 14 14 13 12 11 11 12 12 13 14 13 13 14 14 13 12 11 11 12 11 10 9 10 12 13 12 12 12 11 10 10 9 9 9 8 9 8 7 6 6 7 6 5 4 4 3 3 3 3 3 3 3 3 4 4 3 1 1
3 4 6 3 3 5 4 4 4 4 2 2 4 1 3 1 2 4 6 7 7 8 8 8 8 9 13 13 13 16 17 18 18 18 18 19 18 16 15 14 14 13 12 12 11 13 14 13 14 14 14 15 14 14 13 13 13 12 12 10 10 11 12 13 14 13 13 13 12 11 10 10 10 8 9 8 6 6 5 5 4 4 3 3 3 2 1 1 2 2 2 2 2 1 0 0 0
3 4 4 4 1 4 5 6 5 3 1 1 3 2 1 1 3 6 8 8 2 0 2 4 4 4 12 15 14 16 17 18 19 19 19 19 19 17 16 15 14 13 13 13 13 13 15 14 14 14 15 16 16 14 13 13 14 13 12 11 10 10 12 13 14 14 14 14 14 12 11 11 10 9 9 8 7 7 6 5 4 4 5 4 2 3 3 3 2 2 2 1 1 1 0 0 0
6 6 4 3 3 2 5 5 3 2 2 3 2 0 0 3 6 6 9 10 1 6 5 3 2 1 11 16 15 15 16 17 20 21 21 21 21 19 17 16 15 15 14 14 14 13 15 16 15 14 15 16 16 15 13 13 14 13 12 12 11 11 12 13 14 14 14 15 15 13 13 12 11 10 10 9 9 8 8 7 6 6 7 5 4 4 5 5 3 3 3 2 2 1 0 1 1
9 7 7 6 3 2 4 4 3 2 2 1 1 1 3 7 5 2 6 11 5 4 5 4 3 4 11 15 14 15 16 19 21 22 21 20 21 20 17 16 15 15 14 14 14 14 16 17 17 16 15 16 16 15 14 13 14 13 12 12 13 12 12 13 13 14 14 15 15 14 13 12 11 10 10 10 10 8 8 8 7 6 6 5 5 5 5 5 4 4 3 2 2 1 2 2 3
12 10 6 6 4 5 5 4 4 3 2 1 1 4 6 5 2 2 8 11 7 4 4 3 3 6 10 12 13 14 15 18 19 19 19 18 19 20 18 17 16 16 16 15 15 15 16 18 18 17 17 16 16 16 14 13 13 13 13 13 13 14 14 12 12 13 13 14 15 15 14 12 11 11 11 11 10 9 9 9 8 6 6 5 5 5 5 5 4 4 3 3 3 3 4 4 4
11 11 6 8 7 7 5 4 4 2 2 2 4 8 6 2 2 6 12 9 3 5 4 4 5 7 9 10 12 13 14 16 18 18 19 18 18 20 20 19 18 18 18 17 16 16 15 17 19 19 18 17 16 16 15 13 13 14 13 13 13 15 16 13 12 13 13 13 14 17 17 14 11 10 11 11 10 10 10 11 9 7 6 6 5 5 5 5 5 4 4 4 4 4 5 5 5
6 9 6 8 8 6 5 5 5 2 2 3 4 8 3 4 2 6 5 2 4 5 6 6 7 8 8 9 10 12 13 16 18 17 18 18 18 20 21 21 20 19 18 18 18 17 16 17 18 19 18 18 17 16 16 14 13 14 14 13 13 15 17 15 15 14 14 14 14 17 21 18 13 10 10 11 10 10 10 10 9 7 7 6 5 5 5 5 5 5 5 5 4 5 5 6 6
4 7 5 7 6 6 7 7 7 4 3 4 3 8 5 4 5 8 3 5 5 6 7 7 8 9 9 9 9 10 11 14 16 16 18 20 19 20 21 23 23 21 20 20 20 18 18 18 18 19 19 19 19 17 16 15 14 14 14 14 14 16 18 17 16 17 18 19 18 18 21 21 18 13 11 11 11 10 9 9 9 8 7 6 6 6 6 6 5 5 5 5 5 6 7 7 7
4 6 6 9 8 9 11 10 9 7 4 4 1 8 10 9 9 11 7 6 5 6 7 7 8 9 8 9 8 8 10 12 15 17 20 21 20 20 22 23 23 21 20 20 20 20 20 19 19 18 18 19 20 19 17 16 15 14 15 16 16 17 19 18 16 17 20 22 22 22 21 22 21 17 14 14 13 11 10 10 9 9 8 7 7 7 7 6 6 6 6 6 7 7 7 6 6
5 6 6 8 8 10 13 13 10 8 6 6 3 6 9 10 12 14 9 8 7 6 7 7 7 8 8 8 8 8 10 12 15 17 18 18 19 20 21 23 23 22 20 19 21 21 20 20 20 19 19 19 20 20 17 16 16 14 16 17 16 17 19 19 18 17 20 22 23 23 22 21 22 20 17 16 16 13 10 10 10 9 8 8 8 8 7 7 7 7 7 8 8 7 6 6 6
6 6 4 6 7 7 10 13 11 9 7 8 6 7 8 5 5 10 7 7 7 7 8 8 8 8 7 7 8 8 10 13 15 16 17 17 18 19 20 22 23 23 20 19 21 22 21 21 21 20 20 20 20 20 19 17 17 16 17 17 17 18 18 18 19 19 20 22 22 23 23 22 21 20 18 17 16 14 11 11 11 10 9 9 9 9 8 8 8 8 8 9 9 8 8 7 7
6 5 5 7 7 3 7 11 14 12 7 9 9 6 7 8 6 7 7 6 8 7 8 8 8 9 9 8 8 8 9 12 14 16 17 18 19 18 20 21 22 23 22 20 20 21 21 22 22 21 21 22 21 21 21 19 17 16 17 17 17 17 18 17 19 21 21 21 22 23 24 23 22 21 20 18 16 15 13 12 11 10 10 10 9 9 9 9 9 9 8 8 9 9 8 8 8
7 6 6 8 9 6 5 8 12 13 7 10 13 8 6 7 9 7 7 8 8 7 9 9 9 9 8 8 8 8 8 10 12 15 18 19 19 19 19 20 21 23 23 21 20 21 22 22 23 23 22 23 23 22 22 21 20 18 17 18 17 16 18 18 19 20 20 19 20 22 24 24 24 22 22 20 17 15 14 13 12 11 11 11 11 10 10 10 9 8 8 8 8 8 8 8 8
7 7 7 8 10 8 6 5 8 11 8 10 14 12 12 8 6 5 5 8 9 8 9 9 9 8 8 7 7 8 9 9 11 15 19 20 19 19 18 18 20 21 22 22 21 21 22 22 24 25 25 23 23 23 22 21 21 19 18 18 17 17 19 20 20 20 19 19 19 20 23 25 25 24 23 22 20 17 14 14 13 13 13 13 12 11 11 11 10 9 9 8 8 8 7 8 8
10 9 8 8 7 7 8 3 7 12 11 11 12 12 17 16 10 8 8 8 9 9 8 8 9 8 8 7 8 9 9 10 12 14 17 19 18 18 18 18 19 21 21 22 22 22 21 22 24 26 26 25 24 23 22 22 20 20 19 18 19 18 18 18 18 19 18 17 18 19 21 24 25 25 24 23 22 19 16 15 14 14 15 14 13 12 12 12 11 11 10 8 8 8 7 8 8
12 11 9 9 6 7 9 3 7 10 10 11 13 13 16 16 14 14 12 10 9 11 10 9 9 8 8 8 8 9 10 11 12 13 14 16 18 18 18 18 18 20 21 22 23 23 23 22 23 25 27 26 25 24 23 22 21 22 22 21 22 21 20 19 18 17 17 17 17 16 17 20 23 25 25 24 23 21 17 15 15 15 16 16 14 14 13 13 13 12 12 10 9 9 8 8 8
10 11 9 10 7 6 9 6 7 6 7 9 13 15 16 16 14 15 14 12 12 12 13 12 10 9 9 9 10 10 11 10 9 11 12 13 16 17 18 18 18 20 21 22 23 25 25 24 24 25 26 27 28 28 26 25 24 24 25 25 24 23 22 23 22 21 20 19 20 18 16 18 21 22 24 24 23 23 21 16 16 16 17 17 16 16 15 14 14 14 13 12 11 10 9 10 8
8 8 7 8 8 6 4 4 7 5 5 8 11 12 16 16 13 13 13 15 15 14 13 14 14 12 10 11 13 11 10 8 7 9 11 13 15 17 18 18 19 21 22 23 25 26 26 26 26 25 25 26 29 30 28 27 27 26 26 27 25 22 23 24 25 25 25 24 23 22 20 20 22 22 21 22 20 21 24 21 18 18 18 17 17 17 17 16 15 15 14 13 12 11 10 9 8
7 5 5 6 7 5 2 5 7 5 4 7 9 11 13 14 14 14 14 15 15 14 14 14 14 15 14 13 13 12 10 9 9 10 12 15 17 18 19 19 21 22 22 24 25 25 25 26 26 25 25 26 28 29 29 28 27 26 25 25 24 22 22 23 23 23 25 26 25 25 23 22 24 24 20 21 20 19 24 24 20 19 19 19 18 18 18 18 16 15 16 15 13 12 10 8 10
7 6 7 6 6 6 4 6 8 5 4 5 7 8 11 13 14 15 16 16 15 16 16 15 14 15 15 13 11 11 12 11 10 11 12 15 18 19 20 21 21 22 22 24 25 25 25 26 28 27 27 27 27 29 31 28 25 25 24 22 22 21 20 21 21 20 23 26 26 26 26 24 25 25 22 21 20 19 21 21 20 20 21 20 19 18 19 19 18 17 17 17 15 13 11 11 12
8 8 8 6 7 7 2 3 6 5 5 6 6 8 10 12 15 15 14 15 17 17 17 16 15 14 12 11 10 10 11 10 10 11 11 13 16 19 21 21 20 21 23 25 26 26 27 28 29 28 28 28 26 28 30 28 24 23 23 21 21 21 21 22 23 23 24 26 27 27 27 26 26 26 24 23 22 21 21 20 20 21 21 21 20 19 19 19 19 19 18 17 17 16 14 13 13
8 9 10 8 6 6 3 4 4 4 5 7 7 7 6 7 13 14 11 12 16 16 17 18 16 13 11 10 10 9 9 9 9 10 9 10 13 16 18 19 20 21 24 25 25 26 26 25 26 27 26 26 26 26 27 27 25 24 25 25 24 24 25 26 26 26 25 27 29 29 28 28 26 24 24 25 25 24 24 24 25 24 23 22 22 21 19 18 20 20 19 18 18 17 16 14 14
7 6 10 11 7 5 5 5 4 4 3 4 7 7 5 4 9 11 9 11 13 13 16 18 15 13 12 11 11 10 10 10 9 10 10 9 12 14 16 19 21 22 22 21 21 23 24 23 23 25 25 24 25 24 25 26 26 25 26 26 25 26 27 27 27 26 26 26 26 26 28 29 28 25 25 26 27 28 26 27 30 29 26 24 23 22 19 18 19 20 20 19 17 17 18 17 15
4 3 8 12 9 6 6 5 5 4 3 1 7 7 7 7 10 11 8 10 13 13 16 16 14 15 15 14 13 12 13 12 9 10 11 11 13 15 16 18 20 22 20 19 21 22 23 23 22 23 24 24 24 23 25 27 27 25 25 25 25 26 27 25 25 25 27 27 25 24 25 27 29 28 28 28 29 31 29 28 31 32 30 27 25 25 22 19 20 21 21 20 17 16 19 21 18
1 3 6 8 7 6 5 4 5 3 3 4 8 6 5 7 8 8 7 10 14 15 15 15 14 16 16 16 16 15 13 12 10 10 10 10 12 15 16 16 17 19 19 21 23 22 21 22 22 22 24 25 24 24 25 28 28 26 24 25 25 25 26 24 22 22 25 26 27 27 25 24 28 29 29 30 30 30 31 30 29 30 31 29 27 27 26 23 22 22 22 21 20 18 18 20 19
4 6 6 6 4 4 3 4 3 3 5 8 7 8 6 6 7 7 7 9 13 12 11 12 14 15 15 15 15 14 12 10 8 8 8 8 9 11 13 13 13 15 18 21 22 21 21 21 21 23 24 23 23 24 26 27 28 27 25 25 25 24 23 22 20 21 23 25 27 28 27 25 27 29 29 29 30 29 29 30 29 30 30 30 29 27 25 26 25 24 21 20 22 22 21 22 21
9 9 8 7 4 3 3 2 1 3 7 8 9 12 9 6 5 8 7 6 7 8 7 9 11 11 12 13 12 13 10 7 5 5 7 7 7 8 9 11 12 13 16 19 21 22 23 22 21 22 23 22 22 23 24 26 27 27 27 27 26 24 22 21 21 22 22 25 26 26 27 25 25 29 30 28 29 28 28 28 29 30 30 29 30 27 25 26 27 25 22 21 23 23 23 25 24
10 8 7 7 4 3 3 2 2 5 6 3 4 10 11 8 5 5 6 3 4 7 8 7 7 7 8 8 8 8 6 5 4 5 6 7 7 8 9 11 11 12 14 18 21 24 25 25 23 22 22 23 23 22 24 26 27 28 29 28 27 25 23 21 21 21 21 23 24 23 25 23 22 25 29 29 29 29 29 28 27 28 29 30 31 30 28 28 28 27 24 23 24 23 22 23 23
8 7 8 7 4 4 5 5 5 7 4 3 3 3 8 10 8 8 10 7 6 8 7 6 6 6 6 3 3 3 3 3 4 5 5 6 6 7 9 10 11 13 15 17 19 23 25 26 26 26 27 27 25 24 24 25 27 28 28 27 26 24 23 22 22 22 22 22 22 23 25 25 23 24 28 30 30 30 31 29 27 27 29 31 32 32 32 30 29 28 25 23 24 24 24 23 22
10 9 9 7 7 6 7 7 6 6 3 4 4 3 5 9 7 11 16 15 11 9 9 8 7 8 7 3 3 3 3 3 4 5 5 5 5 6 8 9 10 12 15 16 17 20 21 22 23 26 27 27 26 25 24 24 25 26 25 24 23 22 22 22 23 24 25 23 22 24 27 26 25 26 28 30 28 28 31 31 30 29 29 30 31 31 32 31 30 30 27 24 25 25 25 24 22
10 8 7 8 7 6 5 5 6 5 3 4 5 3 5 5 1 3 8 10 9 8 9 8 5 6 7 5 4 5 5 6 5 5 5 5 6 7 8 8 10 11 13 16 17 19 20 20 20 22 21 22 23 23 23 23 23 23 23 22 20 19 20 21 23 26 26 25 23 23 25 26 26 27 28 28 27 26 28 29 30 31 29 29 30 30 30 30 31 31 28 26 25 24 25 24 23
8 8 9 9 6 4 2 1 1 1 1 3 6 4 5 4 5 6 5 5 6 8 8 7 6 6 6 6 5 5 6 6 5 5 5 5 5 7 7 8 9 10 12 14 15 17 19 20 19 19 19 18 19 20 21 21 22 22 22 22 21 21 21 21 23 24 24 25 24 23 24 25 26 26 26 26 26 26 27 29 31 32 31 31 31 31 30 30 31 30 27 26 25 24 25 26 25
7 9 10 5 1 1 2 1 2 1 4 4 5 4 5 4 8 10 10 7 7 9 9 9 10 9 8 7 5 5 6 6 5 4 4 4 5 5 6 6 7 8 9 10 12 14 16 16 15 15 16 16 16 17 18 19 20 21 22 22 22 23 24 24 24 23 22 24 24 24 25 24 24 25 25 25 26 27 28 30 31 32 32 33 33 33 32 32 32 31 29 28 27 26 26 26 25
7 9 8 5 4 3 3 3 2 3 6 4 5 7 5 4 5 5 10 11 10 10 11 11 11 10 9 7 6 6 6 5 4 4 3 2 3 4 5 6 6 6 7 8 10 12 13 13 12 12 12 12 13 14 15 16 17 18 19 19 20 21 23 24 24 23 22 23 23 23 25 25 24 24 24 24 26 28 29 31 31 32 33 34 34 34 34 33 32 31 30 29 30 29 27 25 24
3 5 7 6 2 4 5 5 3 5 6 4 5 8 7 7 5 3 9 13 13 13 13 11 12 10 8 7 7 7 6 4 3 2 2 2 2 4 6 7 7 7 7 8 9 10 10 11 10 10 9 9 10 11 12 13 14 16 17 18 19 21 22 23 24 24 23 23 23 22 24 26 25 24 24 25 26 28 29 30 31 32 33 34 35 35 33 32 31 30 29 28 29 29 27 26 25
2 3 7 6 4 4 5 5 3 3 6 5 4 5 5 7 7 7 10 12 12 13 11 11 11 8 7 6 5 5 4 3 2 1 2 2 3 4 6 6 7 8 8 8 9 8 8 9 10 11 11 11 12 14 14 14 14 15 17 17 18 20 21 21 22 24 24 24 25 24 25 27 26 25 25 26 27 27 28 29 30 32 33 34 35 35 34 33 33 32 31 31 30 28 27 27 27
5 6 10 8 3 1 2 5 3 2 4 5 5 5 4 3 5 7 10 9 9 10 9 9 7 4 3 3 2 1 1 0 1 2 2 3 3 4 4 5 5 7 8 9 9 9 9 10 10 11 12 13 15 16 17 17 16 17 17 16 16 18 20 21 23 25 26 27 27 27 26 27 26 26 27 27 27 28 28 29 29 31 33 33 34 35 35 34 34 33 32 32 30 28 26 27 28
10 8 9 10 7 4 3 6 5 3 3 3 3 6 4 3 4 5 6 6 8 10 9 6 3 2 2 1 0 0 0 1 2 2 3 3 3 4 4 5 5 7 8 9 10 10 10 11 11 11 12 13 14 15 16 18 18 19 20 18 16 17 18 21 24 26 28 29 29 29 28 28 28 29 29 28 28 28 29 29 30 31 32 34 35 35 35 35 33 31 30 31 30 28 27 29 29
Wind_Direction
310 310 313 316 309 293 276 263 259 207 249 84 84 119 97 68 81 135 134 133 143 112 58 92 119 94 10 346 1 25 34 27 21 28 96 113 143 137 129 133 133 130 131 134 143 140 124 128 126 123 121 117 113 105 103 100 100 102 101 100 102 103 98 96 97 94 91 90 88 89 90 91 95 94 90 87 85 83 82 84 84 88 92 91 91 87 85 87 85 85 86 88 86 83 80 77 75
306 312 309 306 289 276 297 264 273 213 222 130 94 49 91 116 170 155 140 127 85 102 113 132 137 119 353 337 316 359 60 46 50 74 91 128 143 133 136 138 135 133 129 135 142 139 139 139 129 127 127 120 112 112 114 109 106 105 106 110 111 106 103 101 98 98 95 94 94 94 93 93 96 98 95 91 91 90 88 93 92 95 97 94 98 95 89 87 85 85 86 88 85 83 80 77 75
302 318 304 290 264 250 283 245 267 285 259 102 97 84 113 150 151 113 97 87 82 111 132 124 145 144 273 250 278 349 80 66 81 93 109 140 144 140 144 139 136 134 127 136 144 142 143 142 133 130 128 118 111 119 120 113 109 108 109 119 120 110 105 105 101 102 99 98 98 94 94 95 95 98 101 94 91 91 89 91 91 101 106 95 94 94 89 88 86 86 86 85 84 82 80 77 74
305 321 304 285 267 240 269 250 275 299 317 54 93 108 136 152 119 93 81 85 95 134 144 159 168 127 278 307 11 14 98 85 91 103 136 154 147 145 146 142 139 132 131 136 142 143 147 148 136 134 129 117 114 123 124 117 116 115 112 118 121 112 106 107 104 102 101 99 98 99 101 102 101 101 106 100 92 91 92 91 87 96 105 96 91 90 86 88 86 86 85 83 84 84 81 77 74
295 308 302 282 281 291 296 283 274 284 19 18 65 111 141 128 113 103 97 97 104 147 159 195 172 104 251 331 344 346 95 102 102 115 140 134 132 145 147 143 141 135 136 137 142 143 158 169 146 143 139 123 120 124 126 123 126 120 112 115 116 111 108 108 107 106 107 104 103 106 103 104 106 104 108 106 99 96 95 94 91 90 95 93 90 88 85 86 85 85 85 85 86 85 81 76 72
276 278 272 264 291 353 268 255 241 158 43 355 32 98 137 122 117 119 116 107 107 118 165 210 179 105 182 91 27 32 61 112 114 130 138 126 134 147 146 145 143 139 138 139 146 142 159 174 154 147 151 137 128 127 129 130 138 128 117 120 115 115 113 108 113 118 117 115 114 114 108 107 110 109 112 109 104 102 102 102 100 97 94 94 92 91 89 88 87 88 88 88 88 85 79 73 68
286 275 245 243 224 223 256 256 266 93 62 358 29 79 128 130 126 133 138 133 144 148 194 203 212 257 147 116 111 73 68 71 113 139 131 135 144 146 146 147 143 140 140 140 142 146 162 165 154 148 149 146 134 133 134 133 139 130 122 124 121 121 116 109 119 125 120 120 120 123 119 112 113 117 119 115 109 106 109 110 107 105 99 98 97 96 95 93 93 93 93 92 89 83 77 70 66
280 287 277 273 231 207 264 262 324 64 75 40 52 64 89 131 144 152 160 159 165 161 184 181 218 255 116 136 148 105 92 62 105 126 125 139 145 146 150 149 144 142 141 140 141 149 166 165 160 155 148 146 138 138 138 134 134 126 116 121 130 127 119 116 117 117 116 118 118 123 118 107 110 116 117 115 113 110 110 109 107 103 99 99 100 98 97 96 96 96 96 94 89 82 76 71 67
246 259 250 274 255 213 249 224 131 91 102 110 113 104 93 154 167 167 167 154 151 162 175 172 209 253 107 149 113 118 115 94 120 125 134 145 147 149 152 152 147 145 141 142 143 143 162 168 166 165 157 147 140 143 144 143 139 132 124 125 139 132 125 125 116 113 115 113 114 117 114 110 111 115 117 118 117 114 110 107 107 104 103 103 102 101 99 99 98 98 99 95 89 83 77 73 69
218 238 256 268 264 233 226 193 133 122 114 109 104 136 157 178 185 182 175 152 147 165 143 145 209 250 308 125 108 117 114 126 141 135 144 149 150 153 151 153 148 146 145 143 145 142 157 165 162 165 163 152 147 147 150 155 149 142 139 138 147 139 129 129 125 122 122 118 118 119 118 119 119 121 124 122 121 117 111 106 107 107 106 105 105 107 104 101 100 98 98 95 89 83 77 74 71
223 198 264 267 245 237 228 168 142 140 122 132 126 134 163 180 190 196 187 158 154 160 131 159 211 225 247 94 95 108 114 141 150 144 151 151 153 155 150 149 147 149 146 145 147 145 153 160 162 164 162 158 157 154 153 160 157 148 140 142 151 152 141 135 134 131 130 129 126 124 121 121 120 122 125 123 123 123 119 113 113 113 110 109 109 109 106 105 103 100 99 95 89 83 76 73 70
240 188 213 249 244 248 279 94 141 138 145 164 136 129 167 179 189 199 193 168 166 176 159 185 213 214 217 131 106 123 128 151 153 150 152 151 156 156 152 147 148 150 148 149 148 147 148 154 163 163 160 161 165 163 157 155 157 152 136 136 146 149 147 141 140 138 141 137 128 126 126 131 131 129 130 129 129 129 125 118 112 111 112 111 109 106 105 105 104 102 101 95 89 82 75 71 67
255 205 216 241 259 279 340 318 131 147 176 146 101 114 170 180 192 200 193 182 177 186 159 166 144 289 214 99 117 133 137 153 152 152 152 153 157 156 154 150 150 151 151 153 151 151 149 152 159 165 165 165 169 168 165 158 158 162 149 140 145 144 146 142 140 143 148 142 136 138 141 143 143 138 137 136 135 134 132 128 115 109 115 115 111 110 107 106 105 103 99 94 86 79 72 67 64
281 235 239 243 256 272 274 268 182 206 174 103 81 119 172 182 197 212 206 199 170 130 92 118 185 257 204 125 149 148 143 153 153 152 155 155 154 155 157 154 154 154 156 158 157 155 153 155 156 167 170 167 171 170 171 170 163 170 170 160 159 156 160 155 146 151 152 151 152 153 153 151 148 144 144 143 141 138 137 135 124 117 118 118 120 117 117 115 106 103 97 90 80 73 67 62 60
303 292 252 250 244 238 225 257 286 238 143 96 92 142 172 170 164 222 236 217 108 79 88 106 236 285 341 137 140 142 145 151 154 154 156 156 152 152 153 158 160 160 163 163 163 160 158 158 157 165 168 167 172 172 175 181 176 176 181 182 181 174 173 169 158 165 167 161 159 158 156 152 150 150 151 150 144 139 139 138 134 133 127 122 127 123 125 123 109 103 96 85 73 66 59 55 54
304 294 242 242 238 223 189 210 245 243 98 92 113 153 182 167 169 218 335 336 75 108 164 144 174 314 11 49 74 125 143 148 154 155 155 157 153 150 154 168 170 166 170 169 168 168 164 161 162 164 167 171 173 175 175 183 189 185 184 187 193 189 182 177 168 172 176 164 149 150 153 147 146 147 148 150 146 144 143 144 145 147 140 128 127 123 120 124 122 108 90 77 60 50 41 44 46
264 248 229 229 228 216 181 196 204 187 89 92 132 176 193 162 172 220 42 282 232 146 187 133 126 340 40 78 89 122 139 146 153 156 158 162 162 159 163 174 177 174 174 178 175 173 173 169 168 168 170 173 173 177 172 181 192 190 190 191 196 197 190 185 180 178 179 177 166 146 142 140 139 138 142 147 147 150 148 151 156 151 143 136 130 128 119 111 116 105 83 59 45 31 30 37 37
217 220 222 224 225 217 185 186 157 69 85 87 126 189 217 171 168 179 163 225 222 182 187 159 137 144 91 97 119 132 143 152 158 163 165 170 175 171 172 176 182 183 179 183 182 180 179 176 176 173 174 174 174 178 172 178 188 185 189 191 194 197 196 192 187 185 181 187 189 158 144 149 147 145 151 151 147 155 157 157 158 149 142 138 128 125 119 103 99 95 70 49 45 36 51 47 17
223 225 227 228 221 141 70 94 75 83 91 86 100 189 240 215 161 171 204 213 201 212 203 187 194 175 135 119 144 148 152 162 166 172 173 176 183 182 179 178 184 188 184 186 186 186 183 182 182 179 178 178 177 180 177 177 182 183 184 184 185 189 196 194 185 184 182 187 188 168 164 166 157 160 168 164 158 158 155 155 151 144 142 133 125 120 114 107 104 103 84 71 72 59 63 61 1
226 230 232 233 209 127 77 59 79 93 97 107 98 99 239 246 154 169 217 229 205 220 215 197 207 193 169 145 154 160 160 170 176 181 182 184 188 189 186 183 189 191 187 186 187 189 187 186 185 183 182 181 182 184 184 183 182 185 185 185 183 183 190 189 184 184 184 187 185 176 178 174 166 181 187 169 157 156 153 153 148 142 141 132 135 128 115 120 118 116 117 107 86 68 60 65 48
213 221 241 260 189 170 116 97 88 87 69 105 107 129 227 203 203 202 223 236 220 224 222 209 217 199 176 159 160 168 167 174 183 189 191 190 190 194 193 191 193 192 188 188 188 191 191 189 186 185 183 183 186 186 188 188 186 187 189 190 186 184 186 185 187 189 189 190 188 183 186 180 173 190 191 165 151 168 169 158 145 143 155 158 155 140 149 162 136 140 135 108 89 97 142 177 81
217 212 264 336 203 188 116 103 93 87 37 175 163 202 219 99 227 229 231 237 230 79 233 215 240 205 167 162 163 171 175 179 185 193 196 194 193 195 194 194 196 194 191 191 191 191 191 191 188 186 184 185 187 188 191 191 190 191 193 194 189 187 187 186 189 191 192 193 191 189 190 188 181 185 185 172 171 181 184 180 175 176 191 207 189 165 197 205 167 178 189 154 182 212 211 316 346
224 213 224 265 262 211 115 112 105 112 224 219 196 81 43 242 240 229 233 245 305 55 43 44 14 138 154 158 162 171 181 184 188 194 197 196 196 197 196 195 195 195 195 193 191 189 190 191 189 187 186 186 188 190 192 192 194 196 197 197 192 190 188 188 192 193 194 194 194 193 192 192 188 187 186 183 185 186 188 191 192 189 193 207 198 187 204 202 186 193 199 196 198 191 308 317 325
227 224 193 199 226 171 125 112 126 165 215 226 8 351 233 240 252 233 233 250 254 88 75 63 71 137 152 159 167 177 184 188 193 196 197 199 198 198 199 200 200 200 200 196 192 190 190 190 189 187 187 187 190 192 193 194 196 197 198 197 196 193 190 192 194 195 196 197 197 196 194 195 192 191 192 192 192 193 196 194 194 197 195 201 201 196 201 194 189 197 193 199 217 251 282 295 301
222 230 183 169 179 157 130 117 141 158 189 175 231 243 239 239 304 293 250 255 244 162 126 118 138 162 166 172 175 180 186 191 195 195 196 200 200 200 203 207 208 207 206 201 196 196 191 190 189 188 188 189 190 192 195 196 197 198 198 198 200 199 194 194 197 196 197 198 200 199 196 196 197 196 198 200 198 197 202 201 198 202 201 203 206 195 194 191 189 198 206 229 249 270 281 289 296
211 222 185 171 182 161 149 162 167 152 179 172 227 243 234 172 357 270 248 251 211 161 179 176 170 181 184 185 182 184 188 191 193 192 195 198 198 201 203 208 211 210 208 203 200 200 195 191 191 190 190 190 190 192 196 199 199 199 199 199 201 204 200 196 197 197 199 200 202 206 203 197 197 201 202 202 203 202 207 211 206 204 206 203 205 200 198 197 203 220 229 243 254 266 280 289 294
187 203 187 185 187 170 182 198 189 179 213 194 238 256 221 133 234 247 220 159 144 172 202 199 197 201 196 192 189 190 192 193 192 190 192 196 198 201 203 207 211 210 207 204 203 201 198 193 192 193 191 190 190 192 197 199 200 199 201 200 201 208 206 201 202 201 202 202 203 213 212 205 200 201 205 203 203 206 209 214 210 205 208 204 205 206 207 209 219 238 240 241 256 271 283 289 287
162 181 180 197 198 194 205 212 205 204 215 189 249 280 257 165 210 238 187 123 170 197 199 199 210 216 205 199 193 194 199 196 191 191 194 196 197 199 201 205 208 209 207 205 202 201 201 197 195 195 193 193 193 194 197 198 200 200 201 201 204 212 211 206 207 208 209 209 207 215 219 215 210 205 205 205 203 206 208 210 208 207 207 210 220 219 217 219 225 237 237 242 264 279 285 286 283
166 178 205 211 216 226 218 216 215 214 195 149 253 282 254 216 209 231 215 155 178 200 201 200 210 220 214 205 197 196 202 195 192 197 201 199 198 198 202 205 204 205 207 206 203 200 202 202 200 199 195 197 197 196 197 199 200 200 203 207 208 214 216 210 209 213 216 217 216 218 221 221 219 215 213 214 212 208 208 208 205 209 213 220 231 228 222 222 228 237 243 254 268 276 280 280 280
173 182 230 217 222 237 223 217 213 211 182 137 192 261 250 227 211 218 200 158 179 205 210 204 205 213 213 209 205 204 200 197 199 204 205 202 200 201 204 205 203 203 204 204 204 201 202 203 204 204 200 200 200 199 199 201 201 200 208 211 210 216 219 215 213 216 219 221 222 223 224 223 224 222 219 223 224 216 209 211 209 212 218 222 224 223 223 226 234 244 250 259 264 267 272 276 278
180 173 233 225 236 236 204 207 201 199 175 147 193 252 256 250 207 203 185 169 192 212 222 212 206 204 206 211 212 215 206 204 208 209 207 205 204 204 205 205 202 203 202 202 204 203 201 203 205 207 207 205 203 203 201 201 202 202 208 211 211 217 219 219 220 220 223 225 226 226 226 224 225 225 221 225 228 220 210 211 213 214 217 216 215 218 226 237 245 249 253 260 264 265 269 272 274
188 181 211 216 235 221 170 194 200 204 187 167 196 245 253 253 243 194 163 184 206 222 234 224 215 204 202 209 213 222 217 211 214 213 211 208 207 205 205 205 201 201 202 201 203 204 203 203 205 208 210 209 206 207 206 203 204 204 209 212 213 217 218 219 224 226 227 228 230 231 231 228 227 226 225 225 224 219 212 212 214 213 213 211 213 221 232 245 251 253 256 257 260 264 265 268 271
194 206 220 209 216 222 186 181 201 212 196 184 204 238 253 235 236 207 169 195 208 223 240 235 228 215 206 206 209 220 220 215 215 216 214 210 209 207 205 205 203 202 202 201 200 202 205 204 206 209 211 211 210 212 212 210 210 210 211 214 212 214 219 221 225 229 227 227 230 233 235 234 231 229 229 229 224 217 213 214 214 212 210 211 217 227 234 242 247 251 253 250 252 261 266 268 267
189 206 229 226 219 226 210 164 188 204 199 202 208 232 250 233 209 196 185 207 211 217 229 231 230 222 216 211 208 215 218 218 217 217 215 212 210 208 207 205 203 203 203 203 201 200 204 205 207 211 211 211 212 213 215 214 216 216 216 217 215 216 224 226 226 228 226 225 227 229 234 236 235 232 231 231 228 220 215 214 213 214 213 212 221 232 234 239 242 242 249 252 251 254 264 268 266
192 195 212 226 220 225 231 187 165 183 198 222 216 224 245 245 234 219 202 200 217 225 222 227 230 224 220 216 214 217 218 222 223 221 218 214 212 209 208 206 203 203 203 203 203 201 203 205 208 212 212 211 212 212 214 215 216 219 220 219 220 221 224 225 224 226 226 224 225 226 230 234 235 234 232 232 232 223 216 215 213 213 214 214 222 231 232 236 237 236 244 254 253 250 254 265 271
205 198 201 214 212 222 231 195 145 180 202 223 227 232 243 246 243 238 224 203 219 238 238 236 231 226 225 221 224 222 221 227 226 225 222 213 210 208 207 206 202 202 203 202 203 203 204 205 206 210 212 212 212 212 212 213 215 217 219 219 220 223 223 223 223 225 226 225 227 226 226 229 231 233 232 232 233 227 218 216 216 213 212 215 221 226 229 229 231 232 236 243 248 249 247 251 258
218 203 204 217 223 228 226 190 141 177 219 226 231 241 249 250 244 242 239 228 226 233 240 240 231 226 228 228 227 221 223 228 218 215 216 208 206 206 206 206 204 203 203 203 203 204 205 205 206 209 210 211 211 211 211 211 212 213 216 219 220 221 224 226 227 229 228 227 230 231 228 225 224 229 232 232 232 231 223 216 216 216 214 217 222 225 227 227 228 230 232 237 241 244 248 245 236
216 206 203 217 227 239 234 174 143 154 226 244 245 249 255 256 254 249 243 240 235 227 232 237 235 233 231 230 227 223 223 213 195 202 207 203 202 203 204 205 205 204 204 204 204 206 206 206 208 209 208 209 211 211 211 212 213 213 214 217 219 220 221 225 230 232 230 228 230 233 231 228 225 225 229 230 228 228 227 222 217 218 217 220 224 224 226 226 227 228 228 233 233 233 244 241 215
214 211 213 227 225 222 196 153 156 166 213 250 258 260 265 264 261 255 243 241 240 232 231 231 233 237 233 229 223 219 220 208 201 209 207 201 201 201 203 205 207 208 207 207 208 207 207 208 209 209 207 209 211 211 211 211 212 212 212 214 214 215 218 222 228 231 231 231 230 230 229 230 230 226 225 227 224 223 226 224 220 220 220 221 222 222 224 225 225 227 227 229 228 226 229 222 208
219 217 219 231 215 215 226 180 168 180 221 271 286 275 274 274 267 257 244 240 242 238 235 230 228 235 235 232 226 218 217 214 211 216 211 200 197 198 202 205 206 207 209 209 209 208 208 209 209 208 208 209 209 210 211 211 210 211 212 213 213 215 218 222 226 228 230 231 228 227 226 227 229 228 225 223 223 222 223 223 220 221 222 221 220 220 222 223 223 225 223 222 223 221 218 212 209
218 221 224 229 213 218 232 143 159 196 233 249 276 280 271 264 257 255 245 233 234 235 232 229 224 225 232 233 233 226 221 220 218 221 220 201 193 196 201 204 202 204 208 209 208 207 208 210 209 208 208 210 210 211 212 209 209 211 212 214 215 218 220 221 222 222 224 227 227 227 225 225 228 228 227 225 224 223 224 225 223 222 223 222 221 221 222 223 225 223 219 216 218 217 217 215 205
218 219 224 231 228 221 181 137 164 248 249 202 213 262 266 247 245 248 246 232 231 229 227 229 223 215 218 224 226 226 224 227 225 228 228 208 199 198 198 200 200 204 209 210 208 208 210 211 210 209 210 212 212 211 209 206 207 209 209 209 210 214 218 219 218 216 218 222 226 227 226 227 226 225 227 228 227 226 226 228 226 225 224 222 222 221 220 224 224 221 217 216 215 216 221 221 206
228 206 205 220 243 240 199 184 200 256 284 163 191 248 272 272 261 255 247 238 234 228 227 229 227 221 219 220 220 216 218 220 221 227 227 216 206 199 197 199 202 208 211 209 207 210 212 213 211 211 212 214 214 211 207 205 207 209 208 209 210 212 217 219 219 219 220 221 224 228 229 229 227 224 224 226 229 229 229 230 230 229 225 222 222 221 219 219 220 219 216 215 216 216 221 224 215
227 133 177 205 224 224 209 210 224 258 319 176 198 234 271 272 270 267 250 241 240 233 231 227 225 228 224 222 219 213 213 209 204 215 218 216 209 203 203 201 204 211 210 206 207 209 211 212 211 210 212 216 216 212 209 207 207 208 208 210 213 215 218 221 219 220 224 224 224 226 228 230 229 226 224 225 228 228 230 232 230 228 226 225 223 219 217 213 215 217 213 211 215 215 219 222 219
162 93 162 189 204 206 207 222 234 270 314 252 205 197 252 258 256 260 233 234 246 239 235 229 222 223 223 224 222 216 214 208 203 210 213 212 206 206 209 205 207 213 213 213 214 212 209 210 211 210 211 214 214 212 211 210 210 210 209 211 215 218 221 222 219 218 223 224 224 225 224 226 228 227 225 226 227 227 229 231 228 224 226 228 224 219 219 218 215 216 213 212 215 216 219 219 217
119 118 121 128 160 174 184 230 243 256 262 255 217 188 233 269 247 234 214 226 246 246 241 233 225 224 224 226 228 225 219 208 201 210 216 214 205 204 206 205 207 212 216 218 217 215 212 209 209 212 213 213 213 213 213 212 212 213 214 215 217 219 220 220 219 218 220 220 222 223 222 223 225 225 226 228 227 226 227 229 228 224 224 226 224 220 222 224 219 217 217 214 214 216 218 219 218
126 129 117 118 134 140 171 236 272 262 252 245 221 203 221 272 241 216 219 213 227 244 248 237 230 229 229 230 230 227 217 193 179 202 220 220 212 201 196 202 205 208 216 219 220 219 217 212 209 212 216 215 215 214 213 214 214 215 218 220 221 221 219 216 217 219 218 217 220 221 220 221 222 223 226 228 224 221 221 222 225 224 221 222 224 224 227 227 221 217 216 214 216 217 218 221 222
143 145 137 132 132 142 184 200 189 245 253 228 211 204 211 240 227 209 239 214 195 239 245 228 219 225 237 237 229 221 202 167 169 197 214 209 203 196 197 206 204 203 214 220 222 221 219 217 212 210 214 215 216 215 215 215 216 217 220 222 223 223 221 218 219 221 219 216 218 218 217 218 220 222 225 226 221 218 215 215 219 221 218 220 225 229 231 227 220 217 216 216 218 216 214 220 219
171 163 159 161 162 176 207 208 206 235 235 109 93 164 211 243 248 244 259 253 224 233 235 226 226 241 255 231 178 183 174 168 187 203 207 197 193 190 195 202 196 199 211 218 222 222 220 219 214 211 213 214 213 213 215 216 216 218 219 220 223 225 226 226 227 229 228 223 219 218 219 219 218 217 220 221 219 216 213 213 214 216 217 220 227 230 229 226 222 218 217 216 215 214 216 218 215
180 174 175 184 180 187 211 209 213 230 200 126 116 128 241 263 260 244 250 253 241 224 222 236 249 258 265 242 168 183 208 221 223 220 213 200 197 194 194 198 194 199 209 214 220 222 221 220 217 216 216 214 211 211 214 217 219 219 220 221 223 225 228 230 232 234 234 231 224 220 223 224 220 219 219 219 219 216 213 214 215 216 216 219 224 226 225 224 221 218 218 217 216 218 218 215 212
186 186 189 200 199 203 216 209 212 209 132 131 150 164 235 241 9 242 250 263 258 235 230 243 256 257 264 261 224 220 237 241 228 216 220 217 207 202 200 201 200 204 210 215 219 219 219 220 219 219 218 213 210 210 211 215 218 221 223 224 223 224 228 232 234 236 235 234 229 223 224 226 224 225 225 222 222 218 215 216 219 218 217 217 220 222 221 220 218 218 219 218 217 217 214 212 212
191 190 200 216 228 234 236 243 195 137 85 186 189 227 250 253 311 285 256 264 248 238 240 244 252 251 251 253 237 228 237 235 218 207 219 218 204 201 204 208 209 209 212 215 216 216 217 218 217 216 216 212 208 208 209 211 214 218 222 222 221 224 228 231 234 235 234 234 232 227 225 227 226 228 229 227 225 222 219 222 223 221 219 219 221 224 223 220 218 217 217 216 216 214 214 214 213
177 190 203 199 355 303 210 163 89 67 271 225 182 239 269 275 280 250 224 230 222 221 231 233 243 249 244 243 235 227 233 230 215 209 217 205 191 196 201 209 212 206 204 207 212 217 219 219 216 213 212 210 208 210 212 213 214 217 219 218 219 222 224 228 230 232 233 233 233 232 228 227 227 228 230 229 227 224 224 227 226 223 222 222 223 226 225 222 219 218 217 217 216 215 215 214 211
165 190 184 127 41 328 240 230 173 187 247 238 184 229 252 251 264 210 196 216 222 220 223 223 231 238 237 236 229 228 232 220 205 208 218 208 193 199 200 205 208 199 193 193 201 212 214 212 210 207 207 207 207 211 213 215 216 217 218 218 220 223 224 227 229 230 232 233 233 231 225 224 227 228 229 229 228 226 227 230 229 225 223 222 223 224 223 222 220 217 213 213 215 215 213 211 207
195 193 160 147 218 218 199 225 219 199 230 251 211 220 237 232 232 181 186 208 224 230 227 224 231 234 231 233 230 229 226 205 195 202 213 206 197 207 207 198 190 189 193 192 196 206 207 207 209 206 205 205 205 208 210 214 216 217 220 221 222 225 227 228 229 230 232 233 232 228 225 228 231 230 230 229 228 228 230 232 230 226 225 223 222 222 221 220 218 216 213 211 213 214 213 211 206
265 219 178 193 246 216 198 210 229 220 222 247 230 208 229 224 212 209 208 208 217 224 223 226 236 236 228 230 226 220 216 194 170 174 200 205 200 204 201 187 175 183 199 204 206 210 209 211 214 211 210 210 211 212 211 211 215 218 221 223 224 226 227 228 229 229 230 232 231 231 232 233 231 230 229 228 229 233 236 235 231 228 226 224 223 221 219 216 214 216 217 215 214 214 213 214 210
181 196 189 193 200 226 245 218 222 255 231 237 241 232 238 196 178 208 222 220 209 199 201 215 222 216 207 220 227 212 219 166 150 181 204 207 201 192 181 177 181 193 206 210 209 208 208 211 214 214 215 218 222 222 219 217 218 220 222 224 226 226 226 228 229 230 232 234 234 235 235 231 229 232 233 234 238 243 243 238 234 230 227 225 222 218 216 216 215 214 215 214 214 212 211 213 211
187 194 192 192 190 184 209 210 204 228 243 241 258 265 260 144 151 199 218 223 204 188 197 205 176 137 152 177 327 27 315 257 221 199 195 196 198 182 167 177 196 212 220 220 214 209 210 213 212 214 216 220 226 228 227 226 225 226 226 226 227 227 226 227 228 229 232 234 234 235 235 233 233 236 238 241 246 247 243 239 235 232 229 226 221 215 214 214 214 214 213 212 213 212 211 210 208